Rothschild, WI

5:44 AM CST on February 13, 2016 (GMT -0600)
Wausau Downtown

Weather History for KAUW - October, 2011

Change the Weather History Date:

Saturday, October 29, 2011

  Actual Average Record
Temperature  
Mean Temperature 39 °F 41 °F  
Max Temperature 49 °F 50 °F 79 °F (1901)
Min Temperature 28 °F 33 °F 12 °F (1905)
Degree Days  
Heating Degree Days 26 24  
Month to date heating degree days 416 542  
Since 1 July heating degree days 691 835  
Cooling Degree Days 0 0  
Month to date cooling degree days 8 0  
Year to date cooling degree days 558 405  
Moisture  
Dew Point 28 °F    
Average Humidity 67    
Maximum Humidity 92    
Minimum Humidity 42    
Precipitation  
Precipitation 0.00 in 0.07 in 1.36 in (1961)
Month to date precipitation 1.71 2.79  
Year to date precipitation 32.56 28.90  
Snow  
Snow 0.00 in 0.00 in 3.00 in (1906)
Month to date snowfall T 1.2  
Since 1 July snowfall T 1.2  
Snow Depth 0.00 in    
Sea Level Pressure  
Sea Level Pressure 30.02 in    
Wind  
Wind Speed 5 mph (NW)    
Max Wind Speed 15 mph    
Max Gust Speed 20 mph    
Visibility 6 miles    
Events Fog    
T = Trace of Precipitation, MM = Missing Value Source: NWS Daily Summary

Daily Weather History Graph

Daily Weather History Graph

Search for Another Location

Airport or City:

Trip Planner

Search our weather history database for the weather conditions in past years. The results will help you decide how hot, cold, wet, or windy it might be!

Date:

Astronomy

Oct. 29, 2011 Rise Set
Actual Time 7:32 AM CDT 5:51 PM CDT
Civil Twilight 7:02 AM CDT 6:21 PM CDT
Nautical Twilight 6:27 AM CDT 6:56 PM CDT
Astronomical Twilight 5:53 AM CDT 7:30 PM CDT
Moon 11:02 AM CDT (10/29) 8:06 PM CDT (10/29)
Length of Visible Light 11h 19m
Length of Day
10h 19m
Waxing Crescent, 12% of the Moon is Illuminated
Oct 29
Waxing Crescent
Nov 2
First Quarter
Nov 10
Full
Nov 18
Last Quarter
Nov 25
New

Hourly Weather History & Observations

Time (CDT) Temp. Windchill Dew Point Humidity Pressure Visibility Wind Dir Wind Speed Gust Speed Precip Events Conditions
12:54 AM 30.0 °F - 28.9 °F 96% 30.01 in 1.0 mi Calm Calm - N/A   Clear
1:01 AM 30.2 °F - 28.4 °F 93% 29.96 in 0.8 mi Calm Calm - N/A   Clear
1:05 AM 30.2 °F - 28.4 °F 93% 29.96 in 2.0 mi Calm Calm - N/A   Clear
1:12 AM 30.2 °F - 28.4 °F 93% 29.95 in 4.0 mi Calm Calm - N/A   Clear
1:19 AM 30.2 °F - 28.4 °F 93% 29.95 in 1.5 mi Calm Calm - N/A   Clear
1:28 AM 28.4 °F - 28.4 °F 100% 29.95 in 0.5 mi Calm Calm - N/A Fog Light Freezing Fog
1:35 AM 30.2 °F - 28.4 °F 93% 29.95 in 2.5 mi Calm Calm - N/A   Clear
1:42 AM 30.2 °F - 28.4 °F 93% 29.95 in 3.0 mi Calm Calm - N/A   Clear
1:54 AM 28.9 °F - 27.0 °F 92% 30.00 in 3.0 mi Calm Calm - N/A   Partly Cloudy
2:35 AM 30.2 °F - 28.4 °F 93% 29.95 in 3.0 mi Calm Calm - N/A   Overcast
2:43 AM 30.2 °F 26.7 °F 28.4 °F 93% 29.96 in 3.0 mi WNW 3.5 mph - N/A   Overcast
2:54 AM 30.0 °F 26.5 °F 28.9 °F 96% 30.00 in 3.0 mi NW 3.5 mph - N/A   Mostly Cloudy
3:34 AM 28.4 °F - 28.4 °F 100% 29.95 in 3.0 mi Calm Calm - N/A   Scattered Clouds
3:43 AM 30.2 °F - 26.6 °F 86% 29.95 in 2.0 mi Calm Calm - N/A   Partly Cloudy
3:50 AM 30.2 °F - 26.6 °F 86% 29.95 in 1.2 mi Calm Calm - N/A   Clear
3:54 AM 30.0 °F - 27.0 °F 88% 30.00 in 1.5 mi Calm Calm - N/A   Clear
4:23 AM 28.4 °F - 26.6 °F 93% 29.96 in 1.5 mi Calm Calm - N/A   Clear
4:34 AM 28.4 °F 24.6 °F 26.6 °F 93% 29.96 in 3.0 mi NW 3.5 mph - N/A   Clear
5:54 AM 30.0 °F 23.2 °F 28.0 °F 92% 30.03 in 5.0 mi NW 6.9 mph - N/A   Clear
6:54 AM 28.9 °F 22.8 °F 27.0 °F 92% 30.04 in 6.0 mi NW 5.8 mph - N/A   Clear
7:54 AM 28.0 °F 22.8 °F 26.1 °F 92% 30.05 in 4.0 mi NW 4.6 mph - N/A   Clear
8:54 AM 32.0 °F 26.4 °F 28.9 °F 88% 30.07 in 7.0 mi NW 5.8 mph - N/A   Clear
9:54 AM 35.1 °F 32.2 °F 30.9 °F 85% 30.08 in 10.0 mi NW 3.5 mph - N/A   Clear
10:54 AM 39.9 °F - 33.1 °F 77% 30.08 in 10.0 mi Calm Calm - N/A   Clear
11:54 AM 44.1 °F 41.5 °F 32.0 °F 63% 30.08 in 10.0 mi West 4.6 mph - N/A   Clear
12:54 PM 46.9 °F - 30.0 °F 52% 30.07 in 10.0 mi WNW 11.5 mph - N/A   Mostly Cloudy
1:54 PM 46.0 °F 41.4 °F 28.0 °F 50% 30.06 in 10.0 mi West 9.2 mph - N/A   Scattered Clouds
2:54 PM 46.0 °F 41.9 °F 26.1 °F 46% 30.05 in 10.0 mi WNW 8.1 mph - N/A   Overcast
3:54 PM 48.0 °F - 26.1 °F 42% 30.05 in 10.0 mi West 9.2 mph - N/A   Mostly Cloudy
4:54 PM 46.9 °F - 26.1 °F 44% 30.05 in 10.0 mi West 8.1 mph - N/A   Overcast
5:54 PM 43.0 °F - 27.0 °F 53% 30.06 in 10.0 mi Calm Calm - N/A   Clear
7:54 PM 37.9 °F 35.5 °F 26.1 °F 62% 30.09 in 10.0 mi East 3.5 mph - N/A   Clear
8:54 PM 34.0 °F 29.8 °F 27.0 °F 75% 30.09 in 10.0 mi East 4.6 mph - N/A   Clear
9:54 PM 32.0 °F 27.5 °F 27.0 °F 82% 30.08 in 10.0 mi East 4.6 mph - N/A   Clear
10:54 PM 30.9 °F 26.2 °F 26.1 °F 82% 30.08 in 10.0 mi East 4.6 mph - N/A   Clear
11:54 PM 30.0 °F 26.5 °F 26.1 °F 85% 30.09 in 10.0 mi East 3.5 mph - N/A   Clear